sat.trackr.live / text

‹ back to catalog

STARLINK-32793

NORAD 62874 · 2025-022W

PAYLOAD ACTIVE UNKNOWN

§ Identity

Operator
Country
US
Launch date
2025-02-01
Launch site
AFWTR
Launch vehicle
Mass (kg)
RCS (m²)

Purposes: comms

External: N2YO · Heavens-Above · Gunter

§ Orbital elements

Epoch: 2026-05-25T03:25:05.609856Z

Period
94.10 min
Inclination
53.1568°
Eccentricity
0.0001176
Mean motion
15.30209106 rev/d
Perigee alt
474.4 km
Apogee alt
476.0 km
Semi-major
6,853.3 km
B*
4.7274e-4
RAAN
134.6240°
Arg perigee
89.5588°
Mean anomaly
270.5547°
Rev number
7,360

§ Raw data

STARLINK-327931 62874U 25022W   26145.14242604  .00013672  00000+0  47274-3 0  99942 62874  53.1568 134.6240 0001176  89.5588 270.5547 15.30209106 73608

JSON: /api/v1/satellites/62874 · /tle

For live sub-satellite position, see the globe view (requires WebGL).

§ Visibility from observer

Set your observer location to see the next 7 days of passes ≥ 10°. The values pass through the URL so the page stays shareable.

No JS? Fill the form by hand. The geolocation button needs JavaScript.